星链-1548 (STARLINK-1548 )

导读

STARLINK-1548是美国太空探索技术公司星链星座的成员,于2020年8月7日发射升空,属于星链项目低轨互联网卫星组网阶段的产物。星链系统旨在为全球提供高速卫星互联网接入服务,该卫星入轨后承担特定轨道段通信转发任务,是全球规模最大卫星星座的组成单元。

基本信息
目录编号:
46054
目录名称:
STARLINK-1548
国际标识:
2020-055AD
轨道中心:
EARTH
卫星名称:
星链-1548
卫星全名:
星链-1548 (STARLINK-1548 )
卫星状态:
在轨 (已飞行2229 天)
发射日期:
2020-08-07 UTC
国别 :
美国 (US)
星等 :
--
该卫星已列入 空间交会检测服务 Space Conjunction Data Service (SCDS) ,当前飞行风险评估等级: 无高风险
轨道信息
数据来源 国际轨道数据
星历时间: 2026-09-13T19:04:01+0800
14小时前
查看轨道信息
半长轴: 6848.809km
偏心率: 0.000117
轨道倾角: 53.159°
近地点辐角 84.766°
升交点赤经 320.250°
平近点角 275.347°
近地点: 469.87km
远地点: 471.474km
周期: 94.012分钟
每日圈数: 15.31723
详细信息
固有亮度:
5
最大亮度:
2.5
卫星平台:
Starlink V1.0
覆盖范围:
全球
运营商:
太空探索技术公司
运营商所在国:
美国
制造商(研发单位):
太空探索技术公司
制造商所在国:
美国
使用方式:
暂无
卫星简介
星链(Starlink)计划是由太空探索技术公司(SpaceX)提出的一个巨型低轨卫星互联网星座项目,计划在2019年至2024年间在太空搭建由约1.2万颗卫星组成的“星链”网络,其中1584颗将部署在地球上空550千米处的近地轨道,并从2020年开始工作。该卫星仍在工作。
2D轨道图
3D轨道图
轨道高度分析图
轨道倾角分析图
轨道综合分析图
查看轨道综合分析图
与全量物体交会距离演化趋势
与全量物体交会风险概率演化趋势